Location: Unspecified
(0.0000°N, 0.0000°E)
Time: 21:13:20
(UTC+00:00)

CZ-3C DEB - Pass Details

Date: 12 March 2026
Orbit: 440 x 28021 km, 21.3° (Epoch: 10 April)

Event Time Altitude Azimuth Distance (km) Brightness Sun altitude
Rises 15:21:46 0° 285° (WNW) 8,475 ? 41.9°
Reaches altitude 10° 15:25:54 10° 290° (WNW) 8,629 ? 40.9°
Maximum altitude 22:10:42 86° 214° (SW) 12,027 ? -60.1°
Enters shadow 22:23:10 78° 142° (SE) 9,545 ? -63.2°
